Time,TemperatureF,DewpointF,PressureIn,WindDirection,WindDirectionDegrees,WindSpeedMPH,WindSpeedGustMPH,Humidity,HourlyPrecipIn,Conditions,Clouds,dailyrainin,SolarRadiationWatts/m^2,SoftwareType,DateUTC
2013-05-20 00:02:00,58.0,58.0,-100.00,ESE,121,4.0,8.0,100,0.00,,,1.79,0.000000,,2013-05-20 05:02:00,
2013-05-20 00:32:00,58.0,58.0,-100.00,SE,138,4.0,7.0,100,0.00,,,-99.99,0.000000,,2013-05-20 05:32:00,
2013-05-20 00:42:00,58.0,58.0,-100.00,SE,138,4.0,7.0,100,0.00,,,-99.99,0.000000,,2013-05-20 05:42:00,
2013-05-20 00:52:00,58.0,58.0,-100.00,SE,138,4.0,7.0,100,0.00,,,-99.99,0.000000,,2013-05-20 05:52:00,
2013-05-20 01:01:00,58.0,58.0,-100.00,SE,138,4.0,7.0,100,0.00,,,-99.99,0.000000,,2013-05-20 06:01:00,
2013-05-20 01:32:00,60.0,60.0,-100.00,SSE,150,4.0,7.0,100,0.00,,,1.79,0.000000,,2013-05-20 06:32:00,
2013-05-20 01:42:00,60.0,60.0,-100.00,SSE,150,4.0,7.0,100,0.00,,,1.79,0.000000,,2013-05-20 06:42:00,
2013-05-20 01:52:00,60.0,60.0,-100.00,SSE,150,4.0,7.0,100,0.00,,,1.79,0.000000,,2013-05-20 06:52:00,
2013-05-20 02:02:00,60.0,60.0,-100.00,SSE,150,4.0,7.0,100,0.00,,,1.79,0.000000,,2013-05-20 07:02:00,
2013-05-20 02:32:00,59.0,59.0,-100.00,SE,140,0.0,9.0,100,0.00,,,1.79,0.000000,,2013-05-20 07:32:00,
2013-05-20 02:42:00,59.0,59.0,-100.00,SE,140,0.0,9.0,100,0.00,,,1.79,0.000000,,2013-05-20 07:42:00,
2013-05-20 02:52:00,59.0,59.0,-100.00,SE,140,0.0,9.0,100,0.00,,,1.79,0.000000,,2013-05-20 07:52:00,
2013-05-20 03:01:00,59.0,59.0,-100.00,SE,140,0.0,9.0,100,0.00,,,1.79,0.000000,,2013-05-20 08:01:00,
2013-05-20 03:32:00,58.0,58.0,-100.00,SE,134,4.0,9.0,100,0.00,,,1.79,0.000000,,2013-05-20 08:32:00,
2013-05-20 03:42:00,58.0,58.0,-100.00,SE,134,4.0,9.0,100,0.00,,,1.79,0.000000,,2013-05-20 08:42:00,
2013-05-20 03:52:00,58.0,58.0,-100.00,SE,134,4.0,9.0,100,0.00,,,1.79,0.000000,,2013-05-20 08:52:00,
2013-05-20 04:02:00,58.0,58.0,-100.00,SE,134,4.0,9.0,100,0.00,,,1.79,0.000000,,2013-05-20 09:02:00,
2013-05-20 04:33:00,59.0,59.0,-100.00,ESE,113,3.0,8.0,100,0.00,,,1.79,0.000000,,2013-05-20 09:33:00,
2013-05-20 04:43:00,59.0,59.0,-100.00,ESE,113,3.0,8.0,100,0.00,,,1.79,0.000000,,2013-05-20 09:43:00,
2013-05-20 04:53:00,59.0,59.0,-100.00,ESE,113,3.0,8.0,100,0.00,,,1.79,0.000000,,2013-05-20 09:53:00,
2013-05-20 05:03:00,59.0,59.0,-100.00,ESE,113,3.0,8.0,100,0.00,,,1.79,0.000000,,2013-05-20 10:03:00,
2013-05-20 05:33:00,60.0,60.0,-100.00,ESE,117,5.0,9.0,100,0.00,,,1.79,0.000000,,2013-05-20 10:33:00,
2013-05-20 05:42:00,60.0,60.0,-100.00,ESE,117,5.0,9.0,100,0.00,,,1.79,0.000000,,2013-05-20 10:42:00,
2013-05-20 05:52:00,60.0,60.0,-100.00,ESE,117,5.0,9.0,100,0.00,,,1.79,0.000000,,2013-05-20 10:52:00,
2013-05-20 06:02:00,60.0,60.0,-100.00,ESE,117,5.0,9.0,100,0.00,,,1.79,0.000000,,2013-05-20 11:02:00,
2013-05-20 06:32:00,59.0,59.0,-100.00,ESE,116,4.0,10.0,100,0.00,,,1.79,5.000000,,2013-05-20 11:32:00,
2013-05-20 06:42:00,59.0,59.0,-100.00,ESE,116,4.0,10.0,100,0.00,,,1.79,5.000000,,2013-05-20 11:42:00,
2013-05-20 06:52:00,59.0,59.0,-100.00,ESE,116,4.0,10.0,100,0.00,,,1.79,5.000000,,2013-05-20 11:52:00,
2013-05-20 07:01:00,59.0,59.0,-100.00,ESE,116,4.0,10.0,100,0.00,,,1.79,5.000000,,2013-05-20 12:01:00,
2013-05-20 07:32:00,62.0,62.0,-100.00,SSE,152,0.0,8.0,100,0.00,,,1.79,60.000000,,2013-05-20 12:32:00,
2013-05-20 07:42:00,62.0,62.0,-100.00,SSE,152,0.0,8.0,100,0.00,,,1.79,60.000000,,2013-05-20 12:42:00,
2013-05-20 07:52:00,62.0,62.0,-100.00,SSE,152,0.0,8.0,100,0.00,,,1.79,60.000000,,2013-05-20 12:52:00,
2013-05-20 08:01:00,62.0,62.0,-100.00,SSE,152,0.0,8.0,100,0.00,,,1.79,60.000000,,2013-05-20 13:01:00,
2013-05-20 09:32:00,70.0,65.0,-100.00,South,177,0.0,5.0,84,-99.99,,,0.62,410.000000,,2013-05-20 14:32:00,
2013-05-20 09:42:00,70.0,65.0,-100.00,South,177,0.0,5.0,84,-99.99,,,0.62,410.000000,,2013-05-20 14:42:00,
2013-05-20 09:52:00,70.0,65.0,-100.00,South,177,0.0,5.0,84,-99.99,,,0.62,410.000000,,2013-05-20 14:52:00,
2013-05-20 10:01:00,70.0,65.0,-100.00,South,177,0.0,5.0,84,-99.99,,,0.62,410.000000,,2013-05-20 15:01:00,
2013-05-20 10:33:00,68.0,65.0,-100.00,ESE,119,4.0,9.0,89,0.00,,,0.62,584.000000,,2013-05-20 15:33:00,
2013-05-20 10:42:00,68.0,65.0,-100.00,ESE,119,4.0,9.0,89,0.00,,,0.62,584.000000,,2013-05-20 15:42:00,
2013-05-20 10:53:00,68.0,65.0,-100.00,ESE,119,4.0,9.0,89,0.00,,,0.62,584.000000,,2013-05-20 15:53:00,
2013-05-20 11:03:00,68.0,65.0,-100.00,ESE,119,4.0,9.0,89,0.00,,,0.62,584.000000,,2013-05-20 16:03:00,
2013-05-20 11:33:00,71.0,66.0,-100.00,SE,130,1.0,11.0,84,0.00,,,0.46,739.000000,,2013-05-20 16:33:00,
2013-05-20 11:42:00,71.0,66.0,-100.00,SE,130,1.0,11.0,84,0.00,,,0.46,739.000000,,2013-05-20 16:42:00,
2013-05-20 11:53:00,71.0,66.0,-100.00,SE,130,1.0,11.0,84,0.00,,,0.46,739.000000,,2013-05-20 16:53:00,
2013-05-20 12:03:00,71.0,66.0,-100.00,SE,130,1.0,11.0,84,0.00,,,0.46,739.000000,,2013-05-20 17:03:00,
2013-05-20 12:33:00,72.0,67.0,-100.00,ESE,116,1.0,10.0,83,0.00,,,0.45,663.000000,,2013-05-20 17:33:00,
2013-05-20 12:45:00,72.0,67.0,-100.00,ESE,116,1.0,10.0,83,0.00,,,0.45,663.000000,,2013-05-20 17:45:00,
2013-05-20 12:53:00,72.0,67.0,-100.00,ESE,116,1.0,10.0,83,0.00,,,0.45,663.000000,,2013-05-20 17:53:00,
2013-05-20 13:02:00,72.0,67.0,-100.00,ESE,116,1.0,10.0,83,0.00,,,0.45,663.000000,,2013-05-20 18:02:00,
2013-05-20 13:33:00,75.0,68.0,-100.00,WSW,250,1.0,8.0,78,0.00,,,0.43,620.000000,,2013-05-20 18:33:00,
2013-05-20 13:42:00,75.0,68.0,-100.00,WSW,250,1.0,8.0,78,0.00,,,0.43,620.000000,,2013-05-20 18:42:00,
2013-05-20 13:55:00,75.0,68.0,-100.00,WSW,250,1.0,8.0,78,0.00,,,0.43,620.000000,,2013-05-20 18:55:00,
2013-05-20 14:04:00,75.0,68.0,-100.00,WSW,250,1.0,8.0,78,0.00,,,0.43,620.000000,,2013-05-20 19:04:00,
2013-05-20 15:32:00,75.0,68.0,-100.00,South,172,0.0,4.0,78,-99.99,,,0.38,421.000000,,2013-05-20 20:32:00,
2013-05-20 15:42:00,75.0,68.0,-100.00,South,172,0.0,4.0,78,-99.99,,,0.38,421.000000,,2013-05-20 20:42:00,
2013-05-20 15:52:00,75.0,68.0,-100.00,South,172,0.0,4.0,78,-99.99,,,0.38,421.000000,,2013-05-20 20:52:00,
2013-05-20 16:01:00,75.0,68.0,-100.00,South,172,0.0,4.0,78,-99.99,,,0.38,421.000000,,2013-05-20 21:01:00,
2013-05-20 17:33:00,79.0,68.0,-100.00,SSW,199,0.0,5.0,69,-99.99,,,0.04,442.000000,,2013-05-20 22:33:00,
2013-05-20 17:42:00,79.0,68.0,-100.00,SSW,199,0.0,5.0,69,-99.99,,,0.04,442.000000,,2013-05-20 22:42:00,
2013-05-20 17:53:00,79.0,68.0,-100.00,SSW,199,0.0,5.0,69,-99.99,,,0.04,442.000000,,2013-05-20 22:53:00,
2013-05-20 18:03:00,79.0,68.0,-100.00,SSW,199,0.0,5.0,69,-99.99,,,0.04,442.000000,,2013-05-20 23:03:00,
2013-05-20 18:32:00,75.0,69.0,-100.00,SSE,163,0.0,6.0,83,0.00,,,0.04,177.000000,,2013-05-20 23:32:00,
2013-05-20 18:42:00,75.0,69.0,-100.00,SSE,163,0.0,6.0,83,0.00,,,0.04,177.000000,,2013-05-20 23:42:00,
2013-05-20 18:53:00,75.0,69.0,-100.00,SSE,163,0.0,6.0,83,0.00,,,0.04,177.000000,,2013-05-20 23:53:00,
2013-05-20 19:01:00,75.0,69.0,-100.00,SSE,163,0.0,6.0,83,0.00,,,0.04,177.000000,,2013-05-21 00:01:00,
2013-05-20 19:32:00,72.0,70.0,-100.00,SSE,166,0.0,0.0,92,0.00,,,0.01,62.000000,,2013-05-21 00:32:00,
2013-05-20 19:42:00,72.0,70.0,-100.00,SSE,166,0.0,0.0,92,0.00,,,0.01,62.000000,,2013-05-21 00:42:00,
2013-05-20 19:52:00,72.0,70.0,-100.00,SSE,166,0.0,0.0,92,0.00,,,0.01,62.000000,,2013-05-21 00:52:00,
2013-05-20 20:01:00,72.0,70.0,-100.00,SSE,166,0.0,0.0,92,0.00,,,0.01,62.000000,,2013-05-21 01:01:00,
2013-05-20 20:32:00,69.0,68.0,-100.00,SSE,156,0.0,5.0,96,0.00,,,0.01,11.000000,,2013-05-21 01:32:00,
2013-05-20 20:42:00,69.0,68.0,-100.00,SSE,156,0.0,5.0,96,0.00,,,0.01,11.000000,,2013-05-21 01:42:00,
2013-05-20 20:53:00,69.0,68.0,-100.00,SSE,156,0.0,5.0,96,0.00,,,0.01,11.000000,,2013-05-21 01:53:00,
2013-05-20 21:02:00,69.0,68.0,-100.00,SSE,156,0.0,5.0,96,0.00,,,0.01,11.000000,,2013-05-21 02:02:00,
2013-05-20 21:32:00,68.0,65.0,-100.00,SSW,192,0.0,8.0,89,0.00,,,0.01,0.000000,,2013-05-21 02:32:00,
2013-05-20 21:42:00,68.0,65.0,-100.00,SSW,192,0.0,8.0,89,0.00,,,0.01,0.000000,,2013-05-21 02:42:00,
2013-05-20 21:52:00,68.0,65.0,-100.00,SSW,192,0.0,8.0,89,0.00,,,0.01,0.000000,,2013-05-21 02:52:00,
2013-05-20 22:02:00,68.0,65.0,-100.00,SSW,192,0.0,8.0,89,0.00,,,0.01,0.000000,,2013-05-21 03:02:00,
2013-05-20 22:33:00,68.0,65.0,-100.00,SSW,196,0.0,7.0,90,0.00,,,0.01,0.000000,,2013-05-21 03:33:00,
2013-05-20 22:43:00,68.0,65.0,-100.00,SSW,196,0.0,7.0,90,0.00,,,0.01,0.000000,,2013-05-21 03:43:00,
2013-05-20 22:54:00,68.0,65.0,-100.00,SSW,196,0.0,7.0,90,0.00,,,0.01,0.000000,,2013-05-21 03:54:00,
2013-05-20 23:03:00,68.0,65.0,-100.00,SSW,196,0.0,7.0,90,0.00,,,0.01,0.000000,,2013-05-21 04:03:00,
2013-05-20 23:33:00,69.0,65.0,-100.00,SW,214,1.0,13.0,86,0.00,,,0.01,0.000000,,2013-05-21 04:33:00,
2013-05-20 23:42:00,69.0,65.0,-100.00,SW,214,1.0,13.0,86,0.00,,,0.01,0.000000,,2013-05-21 04:42:00,
2013-05-20 23:53:00,69.0,65.0,-100.00,SW,214,1.0,13.0,86,0.00,,,0.01,0.000000,,2013-05-21 04:53:00,